Weather History for KHYW - March, 2014

Change the Weather History Date:

Tuesday, March 11, 2014

  Actual Average Record
Temperature  
Mean Temperature 62 °F -  
Max Temperature 80 °F 66 °F 86 °F (2015)
Min Temperature 44 °F 41 °F 39 °F (2011)
Degree Days  
Heating Degree Days 3    
Growing Degree Days 12 (Base 50)    
Moisture  
Dew Point 48 °F    
Average Humidity 65    
Maximum Humidity 100    
Minimum Humidity 28    
Precipitation  
Precipitation 0.00 in - - ()
Sea Level Pressure  
Sea Level Pressure 29.80 in    
Wind  
Wind Speed 4 mph (SW)    
Max Wind Speed 13 mph    
Max Gust Speed 17 mph    
Visibility 6 miles    
Events      
Averages and records for this station are not official NWS values.
T = Trace of Precipitation, MM = Missing Value Source: NWS Daily Summary

Daily Weather History Graph

Daily Weather History Graph

Search for Another Location

Airport or City:

Trip Planner

Search our weather history database for the weather conditions in past years. The results will help you decide how hot, cold, wet, or windy it might be!

Date:

Astronomy

Mar. 11, 2014 Rise Set
Actual Time 7:32 AM EDT 7:21 PM EDT
Civil Twilight 7:07 AM EDT 7:46 PM EDT
Nautical Twilight 6:38 AM EDT 8:14 PM EDT
Astronomical Twilight 6:09 AM EDT 8:44 PM EDT
Moon 3:05 PM EDT (3/11) 4:14 AM EDT (3/11)
Length of Visible Light 12h 38m
Length of Day
11h 48m
Waxing Gibbous, 78% of the Moon is Illuminated
Mar 11
Waxing Gibbous
Mar 16
Full
Mar 23
Last Quarter
Mar 30
New
Apr 7
First Quarter

Hourly Weather History & Observations

Time (EDT) Temp. Windchill Dew Point Humidity Pressure Visibility Wind Dir Wind Speed Gust Speed Precip Events Conditions
12:15 AM 46.4 °F - 46.4 °F 100% 29.88 in 10.0 mi Calm Calm - N/A   Clear
12:35 AM 46.4 °F - 46.4 °F 100% 29.87 in 7.0 mi Calm Calm - N/A   Clear
12:55 AM 46.4 °F 45.2 °F 46.4 °F 100% 29.87 in 7.0 mi SW 3.5 mph - N/A   Clear
1:15 AM 46.4 °F - 46.4 °F 100% 29.86 in 7.0 mi Calm Calm - N/A   Clear
1:35 AM 46.4 °F - 46.4 °F 100% 29.86 in 7.0 mi Calm Calm - N/A   Clear
1:55 AM 46.4 °F 45.2 °F 46.4 °F 100% 29.86 in 7.0 mi SW 3.5 mph - N/A   Clear
2:15 AM 50.0 °F - 48.2 °F 94% 29.86 in 7.0 mi SW 4.6 mph - N/A   Clear
2:35 AM 53.6 °F - 46.4 °F 77% 29.86 in 7.0 mi SW 4.6 mph - N/A   Clear
2:55 AM 51.8 °F - 46.4 °F 82% 29.86 in 7.0 mi SW 3.5 mph - N/A   Clear
3:15 AM 51.8 °F - 46.4 °F 82% 29.86 in 7.0 mi SW 4.6 mph - N/A   Clear
3:35 AM 51.8 °F - 46.4 °F 82% 29.85 in 7.0 mi SW 4.6 mph - N/A   Clear
3:55 AM 51.8 °F - 46.4 °F 82% 29.84 in 7.0 mi SW 3.5 mph - N/A   Clear
4:15 AM 50.0 °F - 46.4 °F 87% 29.83 in 7.0 mi Calm Calm - N/A   Clear
4:35 AM 46.4 °F 45.2 °F 46.4 °F 100% 29.83 in 7.0 mi SW 3.5 mph - N/A   Clear
4:55 AM 46.4 °F 45.2 °F 46.4 °F 100% 29.82 in 7.0 mi SW 3.5 mph - N/A   Clear
5:15 AM 46.4 °F - 46.4 °F 100% 29.82 in 7.0 mi Calm Calm - N/A   Clear
5:35 AM 48.2 °F - 48.2 °F 100% 29.83 in 7.0 mi SW 4.6 mph - N/A   Clear
5:55 AM 50.0 °F - 50.0 °F 100% 29.83 in 7.0 mi SW 3.5 mph - N/A   Clear
6:15 AM 50.0 °F - 50.0 °F 100% 29.83 in 7.0 mi SW 3.5 mph - N/A   Clear
6:35 AM 50.0 °F - 48.2 °F 94% 29.83 in 7.0 mi Calm Calm - N/A   Clear
6:55 AM 46.4 °F - 46.4 °F 100% 29.83 in 7.0 mi Calm Calm - N/A   Clear
7:15 AM 44.6 °F - 44.6 °F 100% 29.83 in 7.0 mi Calm Calm - N/A   Clear
7:35 AM 44.6 °F - 44.6 °F 100% 29.83 in 7.0 mi Calm Calm - N/A   Clear
7:55 AM 44.6 °F - 44.6 °F 100% 29.84 in 7.0 mi Calm Calm - N/A   Clear
8:15 AM 44.6 °F - 44.6 °F 100% 29.85 in 5.0 mi Calm Calm - N/A   Clear
8:35 AM 50.0 °F - 50.0 °F 100% 29.85 in 7.0 mi SSW 3.5 mph - N/A   Clear
8:55 AM 53.6 °F - 50.0 °F 88% 29.86 in 5.0 mi SW 4.6 mph - N/A   Haze
9:15 AM 57.2 °F - 48.2 °F 72% 29.86 in 7.0 mi SW 5.8 mph - N/A   Clear
9:35 AM 59.0 °F - 48.2 °F 67% 29.86 in 5.0 mi SW 6.9 mph - N/A   Haze
9:55 AM 60.8 °F - 50.0 °F 68% 29.86 in 5.0 mi SW 4.6 mph - N/A   Haze
10:15 AM 62.6 °F - 48.2 °F 59% 29.86 in 7.0 mi WSW 6.9 mph - N/A   Clear
10:35 AM 64.4 °F - 48.2 °F 56% 29.86 in 5.0 mi WSW 5.8 mph - N/A   Haze
10:55 AM 66.2 °F - 48.2 °F 52% 29.86 in 5.0 mi West 6.9 mph - N/A   Haze
11:15 AM 68.0 °F - 46.4 °F 46% 29.86 in 4.0 mi Calm Calm - N/A   Haze
11:35 AM 68.0 °F - 46.4 °F 46% 29.85 in 7.0 mi SW 5.8 mph - N/A   Clear
11:55 AM 69.8 °F - 46.4 °F 43% 29.84 in 7.0 mi SW 4.6 mph - N/A   Clear
12:15 PM 69.8 °F - 44.6 °F 40% 29.83 in 7.0 mi West 4.6 mph - N/A   Clear
12:35 PM 71.6 °F - 44.6 °F 38% 29.83 in 5.0 mi West 6.9 mph - N/A   Haze
12:55 PM 71.6 °F - 44.6 °F 38% 29.82 in 7.0 mi West 3.5 mph - N/A   Clear
1:15 PM 73.4 °F - 44.6 °F 36% 29.81 in 5.0 mi SSW 8.1 mph - N/A   Haze
1:35 PM 73.4 °F - 42.8 °F 33% 29.79 in 7.0 mi SW 5.8 mph - N/A   Clear
1:55 PM 75.2 °F - 44.6 °F 34% 29.77 in 5.0 mi South 8.1 mph - N/A   Haze
2:15 PM 77.0 °F - 42.8 °F 29% 29.76 in 7.0 mi SW 6.9 mph - N/A   Clear
2:35 PM 77.0 °F - 42.8 °F 29% 29.75 in 7.0 mi SSW 9.2 mph - N/A   Clear
2:55 PM 77.0 °F - 42.8 °F 29% 29.75 in 5.0 mi SSW 12.7 mph 17.3 mph N/A   Haze
3:15 PM 78.8 °F - 44.6 °F 30% 29.74 in 7.0 mi WSW 9.2 mph 16.1 mph N/A   Clear
3:35 PM 78.8 °F - 44.6 °F 30% 29.73 in 5.0 mi SSW 8.1 mph - N/A   Haze
3:55 PM 78.8 °F - 44.6 °F 30% 29.72 in 7.0 mi SW 10.4 mph 16.1 mph N/A   Clear
4:15 PM 78.8 °F - 42.8 °F 28% 29.72 in 7.0 mi SW 8.1 mph 16.1 mph N/A   Clear
4:35 PM 80.6 °F - 44.6 °F 28% 29.72 in 5.0 mi SW 8.1 mph - N/A   Haze
4:55 PM 78.8 °F - 44.6 °F 30% 29.71 in 5.0 mi SW 6.9 mph - N/A   Haze
5:15 PM 78.8 °F - 46.4 °F 32% 29.71 in 7.0 mi SSW 11.5 mph 17.3 mph N/A   Clear
5:35 PM 78.8 °F - 46.4 °F 32% 29.71 in 7.0 mi SW 8.1 mph - N/A   Clear
5:55 PM 78.8 °F - 48.2 °F 34% 29.71 in 7.0 mi SSW 9.2 mph 16.1 mph N/A   Clear
6:15 PM 78.8 °F - 48.2 °F 34% 29.71 in 7.0 mi SW 8.1 mph - N/A   Clear
6:35 PM 77.0 °F - 48.2 °F 36% 29.71 in 7.0 mi SW 5.8 mph - N/A   Clear
6:55 PM 75.2 °F - 48.2 °F 38% 29.72 in 7.0 mi SW 4.6 mph - N/A   Clear
7:15 PM 71.6 °F - 48.2 °F 43% 29.72 in 5.0 mi SSW 4.6 mph - N/A   Haze
7:35 PM 69.8 °F - 50.0 °F 49% 29.73 in 10.0 mi SSW 3.5 mph - N/A   Clear
7:55 PM 64.4 °F - 51.8 °F 64% 29.74 in 7.0 mi South 3.5 mph - N/A   Clear
8:15 PM 68.0 °F - 51.8 °F 56% 29.74 in 7.0 mi South 6.9 mph - N/A   Clear
8:35 PM 68.0 °F - 53.6 °F 60% 29.74 in 7.0 mi SSW 6.9 mph - N/A   Clear
8:55 PM 68.0 °F - 53.6 °F 60% 29.75 in 5.0 mi SSW 6.9 mph - N/A   Haze
9:15 PM 66.2 °F - 53.6 °F 64% 29.76 in 5.0 mi SSW 6.9 mph - N/A   Haze
9:35 PM 68.0 °F - 53.6 °F 60% 29.76 in 5.0 mi SSW 5.8 mph - N/A   Haze
9:55 PM 64.4 °F - 53.6 °F 68% 29.76 in 7.0 mi SSW 6.9 mph - N/A   Clear
10:15 PM 66.2 °F - 53.6 °F 64% 29.76 in 5.0 mi SSW 5.8 mph - N/A   Haze
10:35 PM 64.4 °F - 53.6 °F 68% 29.76 in 7.0 mi SW 5.8 mph - N/A   Clear
10:55 PM 64.4 °F - 51.8 °F 64% 29.76 in 7.0 mi SSW 4.6 mph - N/A   Clear
11:15 PM 64.4 °F - 53.6 °F 68% 29.76 in 7.0 mi SSW 5.8 mph - N/A   Clear
11:35 PM 62.6 °F - 51.8 °F 68% 29.75 in 7.0 mi SSW 6.9 mph - N/A   Clear
11:55 PM 62.6 °F - 51.8 °F 68% 29.75 in 7.0 mi SSW 4.6 mph - N/A   Clear